Los Alamitos, CA

7:13 PM PST on January 21, 2017 (GMT -0800)
Los Alamitos

Weather History for KSLI - April, 2013

Change the Weather History Date:

Wednesday, April 17, 2013

  Actual Average Record
Temperature  
Mean Temperature 64 °F -  
Max Temperature 74 °F 68 °F 89 °F (2016)
Min Temperature 53 °F 54 °F 45 °F (2009)
Growing Degree Days 14 (Base 50)    
Moisture  
Dew Point 26 °F    
Average Humidity 27    
Maximum Humidity 73    
Minimum Humidity 9    
Precipitation  
Precipitation 0.00 in - - ()
Sea Level Pressure  
Sea Level Pressure 30.07 in    
Wind  
Wind Speed 10 mph (WNW)    
Max Wind Speed 18 mph    
Max Gust Speed 26 mph    
Visibility 10 miles    
Events      
Averages and records for this station are not official NWS values.
T = Trace of Precipitation, MM = Missing Value Source: NWS Daily Summary

Daily Weather History Graph

Daily Weather History Graph

Search for Another Location

Airport or City:

Trip Planner

Search our weather history database for the weather conditions in past years. The results will help you decide how hot, cold, wet, or windy it might be!

Date:

Astronomy

Apr. 17, 2013 Rise Set
Actual Time 6:18 AM PDT 7:25 PM PDT
Civil Twilight 5:52 AM PDT 7:50 PM PDT
Nautical Twilight 5:22 AM PDT 8:21 PM PDT
Astronomical Twilight 4:50 AM PDT 8:53 PM PDT
Moon 11:42 AM PDT (4/17) 1:00 AM PDT (4/17)
Length of Visible Light 13h 58m
Length of Day
13h 06m
Waxing Crescent, 43% of the Moon is Illuminated
Apr 17
Waxing Crescent
Apr 18
First Quarter
Apr 25
Full
May 2
Last Quarter
May 9
New

Hourly Weather History & Observations

Time (PDT) Temp. Dew Point Humidity Pressure Visibility Wind Dir Wind Speed Gust Speed Precip Events Conditions
12:58 AM 59.5 °F 23.0 °F 25% 30.01 in 10.0 mi WNW 10.4 mph - N/A   Clear
1:58 AM 59.0 °F 24.1 °F 26% 30.02 in 10.0 mi WNW 10.4 mph - N/A   Clear
2:58 AM 57.0 °F 25.3 °F 30% 30.02 in 10.0 mi West 6.9 mph - N/A   Clear
3:58 AM 56.3 °F 24.6 °F 29% 30.02 in 10.0 mi WNW 9.2 mph - N/A   Clear
4:58 AM 57.0 °F 22.6 °F 26% 30.04 in 10.0 mi WNW 12.7 mph - N/A   Clear
5:58 AM 55.8 °F 22.6 °F 28% 30.05 in 10.0 mi NW 10.4 mph - N/A   Clear
6:58 AM 55.9 °F 22.6 °F 28% 30.07 in 10.0 mi NW 6.9 mph - N/A   Clear
7:58 AM 60.1 °F 23.4 °F 24% 30.09 in 10.0 mi NNW 9.2 mph - N/A   Clear
8:58 AM 64.8 °F 23.0 °F 20% 30.10 in 10.0 mi NW 12.7 mph - N/A   Clear
9:58 AM 67.5 °F 19.6 °F 16% 30.10 in 10.0 mi WNW 10.4 mph - N/A   Clear
10:58 AM 69.4 °F 17.6 °F 14% 30.10 in 10.0 mi NW 8.1 mph - N/A   Clear
11:58 AM 70.0 °F 13.3 °F 11% 30.09 in 10.0 mi Variable 2.3 mph - N/A   Clear
12:58 PM 71.4 °F 10.4 °F 9% 30.07 in 10.0 mi Variable 4.6 mph - N/A   Clear
1:58 PM 74.1 °F 27.0 °F 17% 30.06 in 10.0 mi SSW 18.4 mph - N/A   Clear
2:58 PM 72.9 °F 26.4 °F 18% 30.07 in 10.0 mi SW 18.4 mph 26.5 mph N/A   Clear
3:58 PM 71.8 °F 20.8 °F 15% 30.06 in 10.0 mi WSW 17.3 mph - N/A   Clear
4:11 PM 71.6 °F 23.0 °F 16% 30.05 in 10.0 mi West 16.1 mph 25.3 mph N/A   Clear
4:58 PM 71.4 °F 22.1 °F 16% 30.05 in 10.0 mi West 17.3 mph 23.0 mph N/A   Clear
5:58 PM 69.1 °F 23.9 °F 18% 30.06 in 10.0 mi West 13.8 mph - N/A   Clear
6:58 PM 66.4 °F 24.4 °F 20% 30.07 in 10.0 mi West 10.4 mph - N/A   Clear
7:58 PM 63.0 °F 29.3 °F 28% 30.08 in 10.0 mi Variable 2.3 mph - N/A   Clear
8:58 PM 58.5 °F 39.2 °F 49% 30.10 in 10.0 mi Calm Calm - N/A   Clear
9:58 PM 58.5 °F 41.2 °F 53% 30.12 in 10.0 mi NNW 3.5 mph - N/A   Clear
10:58 PM 56.8 °F 43.7 °F 61% 30.12 in 10.0 mi NW 2.3 mph - N/A   Clear
11:58 PM 53.6 °F 45.0 °F 73% 30.13 in 10.0 mi North 2.3 mph - N/A   Clear